Miscellaneous Local Product
Issued by NWS Hastings, NE

Home | Current Version | Previous Version | Graphics & Text | Print | Product List | Glossary On
Versions: 1 2 3 4 5 6 7 8 9 10 11 12 13 14 15 16 17 18 19 20 21 22 23 24 25 26 27 28 29 30 31 32 33 34 35 36 37 38 39 40 41 42 43 44 45 46 47 48 49 50
000
AXUS43 KGID 211902
MISGRI

GID CWA HOURLY WEATHER ROUNDUP
NATIONAL WEATHER SERVICE HASTINGS NE
200 PM CDT THU SEP 21 2017

NOTE: "FAIR" INDICATES FEW OR NO CLOUDS BELOW 12,000 FEET WITH NO
SIGNIFICANT WEATHER AND/OR OBSTRUCTIONS TO VISIBILITY.

...SOUTH CENTRAL NEBRASKA...

CITY           SKY/WX    TMP DP  RH WIND       PRES   REMARKS
GRAND ISLAND   SUNNY     89  64  43 SE20G26   29.73F HX  90
HASTINGS       SUNNY     90  64  42 SE15G26   29.74F HX  91
KEARNEY        SUNNY     90  61  37 S18G28    29.72F HX  90
ORD            SUNNY     86  57  37 SE15      29.70F
YORK           SUNNY     90  68  48 SE17G25   29.75F HX  93
AURORA         SUNNY     89  65  45 S17G24    29.73F HX  91
LEXINGTON      SUNNY     89  51  26 S20       29.71F
HOLDREGE       SUNNY     89  53  30 S21G26    29.73F
HEBRON         SUNNY     91  70  49 S15G22    29.76F HX  97

...NEBRASKA PANHANDLE...

CITY           SKY/WX    TMP DP  RH WIND       PRES   REMARKS
CHADRON        SUNNY     88  32  13 VRB7      29.64F
ALLIANCE       SUNNY     81  45  28 S12       29.70F
SCOTTSBLUFF    SUNNY     80  45  28 E10       29.70F
SIDNEY         SUNNY     86  32  14 S10       29.73F

...WESTERN AND NORTH CENTRAL NEBRASKA...

CITY           SKY/WX    TMP DP  RH WIND       PRES   REMARKS
VALENTINE      SUNNY     85  55  35 S15G23    29.67F
AINSWORTH      SUNNY     83  56  40 S21G26    29.69F
ONEILL         SUNNY     84  60  44 S18G26    29.71F
BROKEN BOW     SUNNY     88  53  30 S15       29.70F
IMPERIAL       SUNNY     89  36  15 SE12      29.70F
NORTH PLATTE   SUNNY     87  51  28 S10       29.69F
MCCOOK         SUNNY     93  46  19 S10       29.70F

...EASTERN NEBRASKA...

CITY           SKY/WX    TMP DP  RH WIND       PRES   REMARKS
NORFOLK        SUNNY     86  69  56 SE23      29.72F HX  90
SO SIOUX CITY  MOSUNNY   85  73  67 S21G28    29.76F HX  91
TEKAMAH        MOSUNNY   88  72  58 S17G30    29.77F HX  94
COLUMBUS         N/A     89  68  49 SE13G23   29.74F HX  93
ALBION         SUNNY     86  65  49 S16G22    29.73F
OMAHA EPPLEY   MOSUNNY   90  72  55 SE25      29.79F HX  97
OFFUTT AFB     MOSUNNY   90  72  55 SE22      29.78F HX  97
MILLARD        PTSUNNY   91  74  58 SE17G25   29.78F HX 100
LINCOLN        SUNNY     92  71  50 SE20      29.76F HX  98
NEBRASKA CITY  MOSUNNY   89  74  59 S16G22    29.81F HX  98
BEATRICE       SUNNY     91  71  52 S14G25    29.78F HX  97
FALLS CITY     MOSUNNY   90  72  55 S18G25    29.82F HX  97

...NORTHERN KANSAS...

CITY           SKY/WX    TMP DP  RH WIND       PRES   REMARKS
GOODLAND       SUNNY     94  34  12 S20G32    29.73F
HILL CITY      SUNNY     96  50  20 S18G28    29.72F HX  93
NORTON         CLEAR     95  34  11 SE14G28   29.70  HX  90
PHILLIPSBURG   SUNNY     95  54  24 SE14G23   29.71F HX  93
SMITH CENTER   SUNNY     91  64  40 SE15G26   29.73F HX  93
HAYS           SUNNY     98  57  25 S22G28    29.73F HX  97
RUSSELL        SUNNY     96  60  30 S23G31    29.74F HX  96
CONCORDIA      SUNNY     89  71  55 S20G28    29.76F HX  95
SALINA         MOSUNNY   98  68  37 S21G30    29.77F HX 103
TOPEKA         PTSUNNY   89  75  63 S18G24    29.84F HX  99



USA.gov is the U.S. government's official web portal to all federal, state and local government web resources and services.